Regional Weather Roundup
Issued by NWS

Home | Current Version | Previous Version | Text Only | Print | Product List | Glossary Off
Versions: 1 2 3 4 5 6 7 8 9 10 11 12 13 14 15 16 17 18 19 20 21 22 23 24 25 26 27 28 29 30 31 32 33 34 35 36 37 38 39 40 41 42 43 44 45 46 47 48 49 50

786
ASUS44 KMEG 281710
RWRTN
TENNESSEE HOURLY STATE WEATHER ROUNDUP
NATIONAL WEATHER SERVICE MEMPHIS TN
1200 PM CDT THU JUL 28 2016

TNZ002-004-019-021-049-052-054-088>092-281800-
WEST TENNESSEE

CITY           SKY/WX    TMP DP  RH WIND       PRES   REMARKS
MEMPHIS INTL   CLOUDY    84  75  74 SW6       29.97R HX  92
NWS MEMPHIS      N/A     81 N/A N/A MISG        N/A
JACKSON        LGT RAIN  81  76  84 NW10      29.95S
DYERSBURG      PTSUNNY   82  73  74 CALM      29.94S
UNION CITY     MOSUNNY   82  75  78 CALM      29.92F
PARIS          CLOUDY    77  73  88 NW3       29.95R
LEXINGTON      PTSUNNY   82  75  78 W8        29.93S
$$

TNZ008-025-027-028-033-062-065-066-281800-
NORTH MIDDLE TENNESSEE

CITY           SKY/WX    TMP DP  RH WIND       PRES   REMARKS
NASHVILLE      LGT RAIN  78  74  87 CALM      29.92S
CLARKSVILLE    MOSUNNY   79  71  76 CALM      29.93F
SMYRNA         CLOUDY    79  75  89 SW6       29.92F
CROSSVILLE     LGT RAIN  74  71  91 VRB3      30.01S FOG
$$

TNZ061-075-076-078-094-096-097-281800-
SOUTH MIDDLE TENNESSEE

CITY           SKY/WX    TMP DP  RH WIND       PRES   REMARKS
FAYETTEVILLE   PTSUNNY   77  75  94 SW10G18   29.97S
WINCHESTER     CLOUDY    75  73  94 S6        29.98S
MCMINNVILLE    CLOUDY    77  77 100 S9        29.96F
COLUMBIA       PTSUNNY  N/A N/A N/A VRB7      29.94R
SHELBYVILLE    CLOUDY    82  75  78 SW13      29.95S
$$

TNZ017-018-042-046-047-281800-
NORTHEAST TENNESSEE

CITY           SKY/WX    TMP DP  RH WIND       PRES   REMARKS
TRI CITIES     CLOUDY    82  71  69 NW10      29.98F
ELIZABETHTON   PTSUNNY   86  72  62 W6        29.97F HX  92
$$

TNZ012-013-036-069-073-074-281800-
CENTRAL EAST TENNESSEE

CITY           SKY/WX    TMP DP  RH WIND       PRES   REMARKS
KNOXVILLE      PTSUNNY   85  68  56 S20       29.96F
OAK RIDGE      PTSUNNY   85  68  56 SW8G20    29.97F
GATLINBURG       N/A     91  66  43 W15       29.95F HX  94
MORRISTOWN     PTSUNNY   86  68  54 SW14G20   29.97S
$$

TNZ083-085-099-281800-
SOUTHEAST TENNESSEE

CITY           SKY/WX    TMP DP  RH WIND       PRES   REMARKS
CHATTANOOGA    DRIZZLE   82  69  64 SW14      29.98F
$$

SKY/WX REPORTED AS FAIR MEANS FEW OR NO CLOUDS BELOW
12 THOUSAND FEET.





USA.gov is the U.S. government's official web portal to all federal, state and local government web resources and services.